Weather Roundup
Issued by NWS

Home | Current Version | Previous Version | Graphics & Text | Print | Product List | Glossary Off
Versions: 1 2 3 4 5 6 7 8 9 10 11 12 13 14 15 16 17 18 19 20 21 22 23 24 25 26 27 28 29 30 31 32 33 34 35 36 37 38 39 40 41 42 43 44 45 46 47 48 49 50

000
NZUS93 KARX 171610
HRRWXR

CURRENT HOURLY OBSERVATIONS ACROSS
MUCH OF THE UPPER MISSISSIPPI VALLEY
NATIONAL WEATHER SERVICE LA CROSSE WI
1100 AM CDT THU AUG 17 2017


...SOUTHEAST MINNESOTA...


CITY           SKY/WX    TMP DP  RH WIND       PRES   REMARKS
ROCHESTER      LGT RAIN  64  64 100 W15G32    29.65R FOG
ROCHESTER/MAYO CLOUDY    64  64 100 W17G26    29.63R
WINONA         CLOUDY    70  63  78 W13       29.59R
AUSTIN         CLOUDY    66  63  88 W20G25    29.68R
ALBERT LEA     CLOUDY    66  66 100 W15G21    29.70R
DODGE CENTER   CLOUDY    64  63  94 W16G24    29.66R FOG
PRESTON        CLOUDY    66  63  89 W21G31    29.65S FOG
OWATONNA       DRIZZLE   64  64 100 W16G28    29.68R
FARIBAULT      RAIN      64  63  94 W16G24    29.67R
$$

...ELSEWHERE IN MINNESOTA...


CITY           SKY/WX    TMP DP  RH WIND       PRES   REMARKS
MINNEAPOLIS    CLOUDY    66  62  87 NW20G28   29.62R
INTNL FALLS    LGT RAIN  60  58  92 N8        29.79R
DULUTH         LGT RAIN  60  60 100 N10       29.64F FOG
RED WING       LGT RAIN  70  66  88 W9        29.57R
REDWOOD FALLS  CLOUDY    66  61  84 NW14G28   29.77R
MANKATO        CLOUDY    68  64  87 W15G24    29.71R
WORTHINGTON    CLOUDY    65  60  84 W17       29.86R
FAIRMONT       CLOUDY    68  62  81 NW21G29   29.79R
$$

...SOUTHWEST WISCONSIN...


CITY           SKY/WX    TMP DP  RH WIND       PRES   REMARKS
LA CROSSE      LGT RAIN  71  66  84 SW13G23   29.60R
PRAIRIE DU CHI CLOUDY    74  62  64 SW17G24   29.67F
BOSCOBEL       CLOUDY    75  64  68 SW15G22   29.67S
LONE ROCK      CLOUDY    73  66  78 SW12G22   29.67F
PLATTEVILLE    PTSUNNY   72  69  90 SW14G21   29.73S
FORT MC COY    CLOUDY    69  64  84 SW12G17   29.60S
CAMP DOUGLAS   LGT RAIN  72  64  78 SW12G20   29.61F
MAUSTON-NEW LI CLOUDY    72  65  79 SW7G21    29.62F
VIROQUA        CLOUDY    67  66  94 SW20G25   29.66R
WIS DELLS      CLOUDY    70  63  80 SW13G20   29.67S
$$

...ELSEWHERE IN WISCONSIN...


CITY           SKY/WX    TMP DP  RH WIND       PRES   REMARKS
MILWAUKEE      LGT RAIN  77  71  82 SW13      29.71F
MADISON        PTSUNNY   73  64  73 SW8G18    29.69S
GREEN BAY      PTSUNNY   78  70  76 S14G23    29.63F
EAU CLAIRE     CLOUDY    69  67  93 W9        29.50S
BLACK RVR FLS  LGT RAIN  68  67  98 SW12G17   29.57S
MEDFORD        LGT RAIN  65  63  93 S12G21    29.57F
WAUSAU         CLOUDY    69  63  81 S10       29.60F
WIS RAPIDS     LGT RAIN  70  65  84 S12G25    29.63F
MARSHFIELD     LGT RAIN  67  64  90 S14G21    29.58F FOG
RICE LAKE      CLOUDY    68  68  98 N6        29.58R
$$

...NORTHEAST IOWA...


CITY           SKY/WX    TMP DP  RH WIND       PRES   REMARKS
WATERLOO       CLOUDY    74  63  68 W18G32    29.74R
DUBUQUE        MOSUNNY   71  65  81 SW20G25   29.74R
DECORAH        CLOUDY    68  64  88 W13G25    29.67R
MASON CITY     CLOUDY    67  64  90 W22G31    29.76R
CHARLES CITY   CLOUDY    68  66  94 W18G30    29.72R FOG
OELWEIN        CLOUDY    72  66  83 W21G28    29.73R
$$

...ELSEWHERE IN IOWA...


CITY           SKY/WX    TMP DP  RH WIND       PRES   REMARKS
DES MOINES     CLOUDY    72  63  73 W17       29.83R
IOWA CITY      CLOUDY    74  65  73 SW12G17   29.80R
FORT DODGE     CLOUDY    70  61  73 W15G21    29.83R
MARSHALLTOWN   PTSUNNY   73  65  75 W18G28    29.78S
CEDAR RAPIDS   CLOUDY    73  65  75 W17G23    29.77R
$$

...NORTHERN ILLINOIS...


CITY           SKY/WX    TMP DP  RH WIND       PRES   REMARKS
CHICAGO-OHARE  PTSUNNY   75  70  84 SW9       29.76R
CHICAGO-MIDWAY CLOUDY    74  70  87 SW14      29.76S
MOLINE         CLOUDY    75  64  68 W16G22    29.79R
ROCKFORD       CLOUDY    78  68  71 S15G28    29.74F
PEORIA         PTSUNNY   74  69  85 W10       29.84R
$$

NOTE: "FAIR" INDICATES FEW OR NO CLOUDS BELOW 12,000 FEET WITH NO
SIGNIFICANT WEATHER AND/OR OBSTRUCTIONS TO VISIBILITY. WIND
SPEEDS ARE IN MILES-PER-HOUR.




USA.gov is the U.S. government's official web portal to all federal, state and local government web resources and services.